Regional Weather Roundup
Issued by NWS Upton, NY

Home | Current Version | Previous Version | Text Only | Print | Product List | Glossary On
Versions: 1 2 3 4 5 6 7 8 9 10 11 12 13 14 15 16 17 18 19 20 21 22 23 24 25 26 27 28 29 30 31 32 33 34 35 36 37 38 39 40 41 42 43 44 45 46 47 48 49 50
000
ASUS41 KOKX 201905
RWROKX
REGIONAL WEATHER ROUNDUP
NATIONAL WEATHER SERVICE NEW YORK NY
300 PM EDT SAT SEP 20 2014

NOTE: "FAIR" INDICATES FEW OR NO CLOUDS BELOW 12,000 FEET WITH NO
SIGNIFICANT WEATHER AND/OR OBSTRUCTIONS TO VISIBILITY.

NYZ071-072-176-178-NJZ106-104-202000-
NEW YORK CITY METRO AREA


CITY           SKY/WX    TMP DP  RH WIND       PRES   REMARKS
CENTRAL PARK   MOSUNNY   72  57  59 MISG      30.21F
LAGUARDIA APRT PTSUNNY   72  57  59 S18G25    30.18F
KENNEDY INTL   PTSUNNY   74  59  59 SE17G24   30.20F
NEWARK/LIBERTY PTSUNNY   73  60  63 SE16G23   30.17F
BRNX BOT. GARD   N/A     72  57  60 SE13      30.20F
TETERBORO      PTSUNNY   74  58  57 S14G22    30.16F
$$

NYZ177-179-078>081-202000-
LONG ISLAND NEW YORK

CITY           SKY/WX    TMP DP  RH WIND       PRES   REMARKS
FARMINGDALE    MOSUNNY   73  58  59 S17G25    30.21F
ISLIP          MOSUNNY   72  58  61 S17       30.19F
SHIRLEY        PTSUNNY   74  56  53 S14       30.22F
WESTHAMPTON    SUNNY     73  56  54 S12G18    30.23F
MONTAUK POINT    N/A     72  54  53 VRB6      30.24F
$$

NYZ052-065-067-202000-
HUDSON VALLEY

CITY           SKY/WX    TMP DP  RH WIND       PRES   REMARKS
WHITE PLAINS   PTSUNNY   70  55  59 S10G17    30.19F
NEWBURGH       PTSUNNY   73  57  56 SW7G17    30.17F
MONTGOMERY     CLOUDY    73  56  54 S10       30.14F
POUGHKEEPSIE   CLOUDY    73  56  54 S8        30.14F
ALBANY         PTSUNNY   73  55  53 S18G25    30.09F
$$

NJZ001-105-106-008-010-013-015-019>022-104-202000-
NEW JERSEY

CITY           SKY/WX    TMP DP  RH WIND       PRES   REMARKS
NEWARK/LIBERTY PTSUNNY   73  60  63 SE16G23   30.17F
TETERBORO      PTSUNNY   74  58  57 S14G22    30.16F
CALDWELL       CLOUDY    71  58  63 SE13      30.17F
MORRISTOWN     CLOUDY    75  57  53 S10       30.17F
SOMERVILLE     PTSUNNY   77  57  50 S8        30.14F
LINDEN         MOCLDY    79  61  53 S13       30.18F
SUSSEX         PTSUNNY   76  56  49 S6        30.15F
ANDOVER          N/A     74  56  53 VRB5G16   30.16F
TRENTON        MOSUNNY   77  56  48 S12       30.15F
MILLVILLE      PTSUNNY   76  59  55 S8        30.17F
ATLANTIC CITY  CLOUDY    75  62  64 SE10      30.18F
WRIGHTSTOWN    MOSUNNY   76  60  58 SE10      30.15F
TOMS RIVER     CLOUDY    73  61  64 S13       30.20S
BELMAR         CLOUDY    73  59  60 S13       30.19F
$$

PAZ047>061-062-071-202000-
EASTERN PENNSYLVANIA

CITY           SKY/WX    TMP DP  RH WIND       PRES   REMARKS
PHILADELPHIA   MOSUNNY   79  59  50 S9        30.16F
ALLENTOWN      PTSUNNY   77  56  48 S14       30.15F
SCRANTON       PTSUNNY   73  57  57 S10G17    30.13F
$$

CTZ002-004>006-009-010-012-RIZ004-006-007-MAZ004-011-015-202000-
SOUTHERN NEW ENGLAND
 IN CT

CITY           SKY/WX    TMP DP  RH WIND       PRES   REMARKS
BRADLEY INTL   PTSUNNY   73  55  53 S12       30.16F
HARTFORD       PTSUNNY   71  55  56 S14       30.17F
DANBURY        CLOUDY    69  56  62 S9        30.20F
WTRBRY/OXFORD  PTSUNNY   70  55  60 S13G20    30.21F
BRIDGEPORT     MOSUNNY   74  57  55 S13       30.20F
MERIDEN        PTSUNNY   71  53  52 S10G18    30.19F
NEW HAVEN      PTSUNNY   75  56  51 S12       30.21F
CHESTER        MOCLDY    70  55  60 S14       30.22F
GROTON         PTSUNNY   71  56  58 S15       30.21F
WILLIMANTIC    CLOUDY    71  54  54 S15       30.21F

 IN RI

CITY           SKY/WX    TMP DP  RH WIND       PRES   REMARKS
PROVIDENCE     MOSUNNY   71  54  54 S13       30.22F
BLOCK ISLAND   SUNNY     72  52  49 S12       30.23F
WESTERLY       SUNNY     71  54  54 S14       30.23F

 IN MA

CITY           SKY/WX    TMP DP  RH WIND       PRES   REMARKS
BOSTON         PTSUNNY   70  53  54 S14       30.18F
WORCESTER      PTSUNNY   66  53  63 S15       30.19F
WESTFIELD      PTSUNNY   72  54  53 SW18G25   30.16F
PROVINCETOWN   SUNNY     66  54  63 S14G20    30.23F
NANTUCKET      SUNNY     67  55  65 SE13      30.25F
$$

ANZ330-335-338-340-345-350-353-355-202000-
COASTAL MARINE OBSERVATIONS


STATION/POSITION TIME  SKY/WX   TEMP    WIND        PRES    VSBY  WAVE
                                AIR SEA DIR/SP/G                  HT/PER
                 (UTC)          (F)     (DEG/KT/KT) (MB)    (MI)  (FT/S)
NY HARB ENTRANCE 1900            70 70  160/ 14/ 17 1022.6          4/ 9
4S FIRE IS       1900               70                N/A           4/ 8
20S FIRE ISLAND  1900            69 68  160/ 12/ 16 1023.1          4/ 9
23SW MTP         1900                                 N/A           3/ 4
HUDSON CANYON    1900            71 72  130/ 16/ 17 1022.4          4/10
EXECUTION ROCKS  1900            72 70  180/ 14/ 19   N/A
WESTERN LI SOUND 1900            71     170/ 14/ 17   N/A           1
CENTRAL LI SOUND 1800            70 70  200/ 10/ 14   N/A           1
EASTERN LI SOUND 1800            68 68  180/ 14/ 17   N/A
ROBBINS REEF     1900            69     150/ 23/ 27 1020.5
$$


>>>>>>>>>>>>>>>>>>>>>>>>>>>> KEY <<<<<<<<<<<<<<<<<<<<<<<<<<<
>                                                          <
>     SKY/WX - SKY CONDITION/PRESENT WEATHER               <
>     TMP    - TEMPERATURE IN FAHRENHEIT                   <
>     DP     - DEWPOINT IN FAHRENHEIT                      <
>     RH     - RELATIVE HUMIDITY IN PERCENT                <
>     WIND   - DIRECTION AND SPEED IN MPH                  <
>     PRES   - MEAN SEA LEVEL PRESSURE IN INCHES OF HG     <
>     WCI    - WIND CHILL INDEX                            <
>     VSB    - VISIBILITY IN MILES                         <
>     HX     - HEAT INDEX                                  <
>     TC     - TEMPERATURE IN CELSIUS                      <
>     VRB    - VARIABLE WIND DIRECTION                     <
>                                                          <
>>>>>>>>>>>>>>>>>>>>>>>>>>>> KEY <<<<<<<<<<<<<<<<<<<<<<<<<<<




USA.gov is the U.S. government's official web portal to all federal, state and local government web resources and services.